This demonstration page uses our WeatherBlox Daily Observations layout. Learn more.

Left ArrowRight Arrow

Hourly Observations for June 16, 2017

Temp ( °F °C ) Dew Point ( °F °C ) Humidity (%) Winds ( mph kmh ) Pressure ( in mb ) Visibility ( mi km ) Precip ( " mm )
12:59 am 00:59 Cloudy with Mist and Fog 72 22.2 67 19.4 84 84 Calm 29.93 1014 6 10 0.00 0.00
1:59 am 01:59 Cloudy 72 22.2 67 19.4 84 84 E 3 6 29.92 1013 7 11 0.00 0.00
2:59 am 02:59 Cloudy with Mist and Fog 72 22.2 67 19.4 84 84 E 3 6 29.91 1013 6 10 0.00 0.00
3:59 am 03:59 Cloudy with Mist and Fog 70 21.1 67 19.4 90 90 Calm 29.91 1013 5 8 0.00 0.00
4:59 am 04:59 Cloudy with Mist and Fog 72 22.2 68 20 87 87 Calm 29.90 1013 5 8 0.00 0.00
5:59 am 05:59 Cloudy with Mist and Fog 72 22.2 68 20 87 87 Calm 29.91 1013 3 5 0.00 0.00
6:34 am 06:34 Cloudy with Mist and Fog 72 22.2 68 20 87 87 Calm 29.91 1013 2 3 0.00 0.00
6:42 am 06:42 Cloudy with Mist and Fog 72 22.2 69 20.6 91 91 Calm 29.91 1013 2 3 0.00 0.00
6:44 am 06:44 Cloudy with Mist and Fog 72 22.2 69 20.6 91 91 Calm 29.91 1013 2 2 0.00 0.00
6:59 am 06:59 Cloudy with Mist and Fog 72 22.2 69 20.6 91 91 Calm 29.92 1013 2 2 0.00 0.00
7:15 am 07:15 Cloudy with Mist and Fog 73 22.8 69 20.6 87 87 Calm 29.91 1013 3 4 0.00 0.00
7:26 am 07:26 Cloudy with Mist and Fog 73 22.8 69 20.6 87 87 Calm 29.91 1013 3 5 0.00 0.00
7:59 am 07:59 Cloudy with Haze 74 23.3 69 20.6 85 85 N 3 6 29.92 1013 4 6 0.00 0.00
8:59 am 08:59 Cloudy with Haze 75 23.9 69 20.6 82 82 Calm 29.93 1014 4 6 0.00 0.00
9:51 am 09:51 Cloudy with Haze 77 25 70 21.1 79 79 SSE 3 6 29.91 1013 6 10 0.00 0.00
9:59 am 09:59 Cloudy with Haze 78 25.6 70 21.1 76 76 Calm 29.92 1013 6 10 0.00 0.00
10:59 am 10:59 Cloudy with Haze 80 26.7 71 21.7 74 74 VRB 3 6 29.92 1013 6 10 0.00 0.00
11:11 am 11:11 Mostly Cloudy with Haze 81 27.2 71 21.7 72 72 VRB 5 7 29.94 1014 6 10 0.00 0.00
11:59 am 11:59 Mostly Cloudy with Haze 81 27.2 71 21.7 72 72 NW 7 11 29.93 1014 6 10 0.00 0.00
12:59 pm 12:59 Hazy 83 28.3 72 22.2 70 70 NE 7 11 29.92 1013 6 10 0.00 0.00
1:59 pm 13:59 Hazy 83 28.3 73 22.8 72 72 ENE 9 15 29.90 1013 6 10 0.00 0.00
2:59 pm 14:59 Hazy 84 28.9 73 22.8 70 70 NE 12 19 29.88 1012 6 10 0.00 0.00
3:59 pm 15:59 Mostly Cloudy with Thunderstorms 81 27.2 72 22.2 74 74 ENE 10 17 29.86 1011 6 10 0.00 0.00
4:59 pm 16:59 Mostly Cloudy with Thunderstorms 77 25 70 21.1 79 79 SSE 9 15 29.89 1012 10 16 0.00 0.03
5:18 pm 17:18 Cloudy with Thunderstorms 75 23.9 70 21.1 84 84 SSE 7 11 29.91 1013 2 3 0.10 2.54
5:59 pm 17:59 Mostly Cloudy with Thunderstorms 74 23.3 70 21.1 88 88 S 6 9 29.90 1013 5 8 0.19 4.83
6:59 pm 18:59 Mostly Cloudy 73 22.8 70 21.1 90 90 SSE 7 11 29.87 1011 9 14 0.08 2.03
7:59 pm 19:59 Cloudy 74 23.3 70 21.1 88 88 Calm 29.88 1012 10 16 0.00 0.03
8:59 pm 20:59 Cloudy 74 23.3 71 21.7 91 91 Calm 29.90 1013 9 14 0.00 0.00
9:59 pm 21:59 Cloudy 74 23.3 71 21.7 91 91 ESE 3 6 29.92 1013 7 11 0.00 0.00
10:19 pm 22:19 Cloudy with Thunderstorms 74 23.3 71 21.7 91 91 ESE 3 6 29.94 1014 2 3 0.00 0.00
10:28 pm 22:28 Mostly Cloudy with Thunderstorms 74 23.3 71 21.7 91 91 Calm 29.91 1013 2 2 0.03 0.76
10:35 pm 22:35 Cloudy with Thunderstorms 75 23.9 72 22.2 90 90 Calm 29.91 1013 2 3 0.04 1.02
10:44 pm 22:44 Cloudy with Thunderstorms 74 23.3 71 21.7 91 91 Calm 29.94 1014 7 11 0.04 1.02
10:59 pm 22:59 Cloudy with Thunderstorms 75 23.9 72 22.2 90 90 N 3 6 29.93 1013 7 11 0.04 1.02
11:23 pm 23:23 Cloudy with Strong Thunderstorms 74 23.3 71 21.7 91 91 VRB 5 7 29.94 1014 1 1 0.33 8.38
11:32 pm 23:32 Cloudy with Strong Thunderstorms 73 22.8 70 21.1 90 90 Calm 29.94 1014 1 2 0.45 11.43
11:39 pm 23:39 Cloudy with Thunderstorms 73 22.8 71 21.7 94 94 Calm 29.94 1014 4 6 0.45 11.43
11:57 pm 23:57 Mostly Cloudy with Thunderstorms 73 23 70 21 89 89 Calm 29.91 1013 7 11 0.46 11.68
11:59 pm 23:59 Mostly Cloudy with Thunderstorms 73 22.8 71 21.7 94 94 S 3 6 29.92 1013 7 11 0.46 11.68

Powered by AerisWeather